Change the Weather History Date:

Saturday, December 28, 2013

  Actual Average Record
Temperature  
Mean Temperature 62 °F -  
Max Temperature 78 °F 78 °F 89 °F (2010)
Min Temperature 46 °F 53 °F 46 °F (1998)
Degree Days  
Heating Degree Days 3    
Growing Degree Days 12 (Base 50)    
Moisture  
Dew Point 45 °F    
Average Humidity 54    
Maximum Humidity 73    
Minimum Humidity 30    
Precipitation  
Precipitation 0.00 in 0.00 in - ()
Sea Level Pressure  
Sea Level Pressure 30.00 in    
Wind  
Wind Speed 2 mph ()    
Max Wind Speed 7 mph    
Max Gust Speed -    
Visibility 2.4 miles    
Events      
Averages and records for this station are not official NWS values.
T = Trace of Precipitation, MM = Missing Value Source: Averaged Metar Reports

Daily Weather History Graph

Daily Weather History Graph

Search for Another Location

Airport or City:

Trip Planner

Search our weather history database for the weather conditions in past years. The results will help you decide how hot, cold, wet, or windy it might be!

Date:

Astronomy

Dec. 28, 2013 Rise Set
Actual Time 7:19 AM IST 6:02 PM IST
Civil Twilight 6:54 AM IST 6:27 PM IST
Nautical Twilight 6:26 AM IST 6:55 PM IST
Astronomical Twilight 5:58 AM IST 7:23 PM IST
Moon 2:44 AM IST (12/28) 2:19 PM IST (12/28)
Length of Visible Light 11h 32m
Length of Day
10h 43m
Waning Crescent, 23% of the Moon is Illuminated
Dec 28
Waning Crescent
Jan 1
New
Jan 8
First Quarter
Jan 16
Full
Jan 24
Last Quarter

Hourly Weather History & Observations

Time (IST) Temp. Dew Point Humidity Pressure Visibility Wind Dir Wind Speed Gust Speed Precip Events Conditions
12:10 AM 59.0 °F 39.2 °F 48% 30.01 in 2.5 mi NW 3.5 mph - N/A   Smoke
12:40 AM 57.2 °F 39.2 °F 51% 30.01 in 2.5 mi Calm Calm - N/A   Smoke
1:10 AM 55.4 °F 39.2 °F 54% 30.01 in 2.5 mi Calm Calm - N/A   Smoke
1:40 AM 55.4 °F 37.4 °F 51% 30.01 in 2.5 mi Calm Calm - N/A   Smoke
2:10 AM 55.4 °F 35.6 °F 47% 29.98 in 2.5 mi Calm Calm - N/A   Smoke
2:30 AM 59 °F 41 °F 40% 29.99 in 2 mi NW 3.5 mph - -  
2:40 AM 55.4 °F 35.6 °F 47% 29.98 in 2.5 mi Calm Calm - N/A   Smoke
3:10 AM 53.6 °F 35.6 °F 51% 29.98 in 2.5 mi Calm Calm - N/A   Smoke
3:40 AM 51.8 °F 37.4 °F 58% 29.98 in 2.5 mi Calm Calm - N/A   Smoke
4:10 AM 51.8 °F 35.6 °F 54% 29.98 in 2.5 mi Calm Calm - N/A   Smoke
4:40 AM 50.0 °F 35.6 °F 58% 29.98 in 2.5 mi Calm Calm - N/A   Smoke
5:30 AM 51 °F 41 °F 59% 29.99 in 2 mi NW 3.5 mph - -   Haze
5:40 AM 48.2 °F 37.4 °F 66% 29.98 in 2.5 mi Calm Calm - N/A   Smoke
6:10 AM 46.4 °F 37.4 °F 71% 29.98 in 2.5 mi Calm Calm - N/A   Smoke
6:40 AM 46.4 °F 37.4 °F 71% 30.01 in 2.5 mi Calm Calm - N/A   Haze
7:10 AM 46.4 °F 37.4 °F 71% 30.01 in 2.5 mi Calm Calm - N/A   Haze
8:10 AM 48.2 °F 39.2 °F 71% 30.04 in 1.2 mi Calm Calm - N/A   Haze
8:30 AM 50 °F 44 °F 73% 30.05 in 2 mi Calm Calm - -  
8:40 AM 51.8 °F 42.8 °F 71% 30.06 in 1.2 mi Calm Calm - N/A   Haze
9:10 AM 57.2 °F 44.6 °F 63% 30.06 in 1.2 mi North 3.5 mph - N/A   Haze
9:40 AM 60.8 °F 48.2 °F 63% 30.06 in 1.2 mi NNE 5.8 mph - N/A   Smoke
10:10 AM 66.2 °F 50.0 °F 56% 30.06 in 1.2 mi NE 6.9 mph - N/A   Smoke
11:30 AM 73 °F 51 °F 35% 30.07 in 6 mi NE 6.9 mph - -  
2:30 PM 77 °F 51 °F 30% 29.98 in 2 mi WNW 2.3 mph - -  
2:40 PM 78.8 °F 51.8 °F 39% 29.95 in - North - - N/A   Smoke
3:10 PM 78.8 °F 50.0 °F 36% 29.95 in 3.1 mi NNE 3.5 mph - N/A   Smoke
3:40 PM 78.8 °F 48.2 °F 34% 29.95 in 3.1 mi East 3.5 mph - N/A   Smoke
4:10 PM 78.8 °F 48.2 °F 34% 29.95 in 3.1 mi North 6.9 mph - N/A   Smoke
4:40 PM 77.0 °F 48.2 °F 36% 29.95 in 3.1 mi North 4.6 mph - N/A   Smoke
5:10 PM 77.0 °F 48.2 °F 36% 29.95 in 3.1 mi North 3.5 mph - N/A   Smoke
5:30 PM 75 °F 51 °F 32% 29.96 in 2 mi North 2.3 mph - -  
5:40 PM 73.4 °F 46.4 °F 38% 29.95 in 2.5 mi NNE 4.6 mph - N/A   Smoke
6:10 PM 69.8 °F 48.2 °F 46% 29.95 in 2.5 mi Variable 2.3 mph - N/A   Smoke
6:40 PM 66.2 °F 48.2 °F 52% 29.98 in 2.5 mi Variable 2.3 mph - N/A   Smoke
7:10 PM 66.2 °F 48.2 °F 52% 29.98 in 2.5 mi Variable 2.3 mph - N/A   Smoke
7:40 PM 64.4 °F 50.0 °F 59% 29.98 in 2.5 mi Variable 2.3 mph - N/A   Smoke
8:10 PM 62.6 °F 50.0 °F 63% 30.01 in 2.5 mi Variable 2.3 mph - N/A   Smoke
8:30 PM 63 °F 52 °F 59% 30.02 in 2 mi North 3.5 mph - -   Haze
8:40 PM 62.6 °F 50.0 °F 63% 30.01 in 2.5 mi North 2.3 mph - N/A   Haze
9:10 PM 60.8 °F 48.2 °F 63% 30.01 in 2.5 mi NNE 2.3 mph - N/A   Haze
9:40 PM 60.8 °F 51.8 °F 72% 30.04 in 2.5 mi North 2.3 mph - N/A   Haze
10:10 PM 59.0 °F 50.0 °F 72% 30.04 in 2.5 mi Calm Calm - N/A   Haze
10:40 PM 59.0 °F 46.4 °F 63% 30.04 in 2.5 mi North 3.5 mph - N/A   Haze
11:10 PM 59.0 °F 46.4 °F 63% 30.04 in 2.5 mi Variable 2.3 mph - N/A   Haze
11:30 PM 60 °F 49 °F 56% 30.04 in 2 mi North 2.3 mph - -   Haze
11:40 PM 59.0 °F 46.4 °F 63% 30.04 in 2.5 mi North 3.5 mph - N/A   Haze